Location: *
(48.0403°N, 38.7728°E)
Time: 01:43:56
(UTC+00:00)

Daily predictions for brighter satellites

Satellite Brightness Start Highest point End
(mag) Time Altitude Azimuth Time Altitude Azimuth Time Altitude Azimuth
USA 238 DEB 4.2 00:07:45 60° NE 00:07:54 60° NE 00:15:12 10° ESE
USA 238 4.2 00:07:49 60° NE 00:08:00 60° NE 00:15:17 10° ESE
Cosmos 2322 Rocket 3.7 00:23:49 29° N 00:23:49 29° N 00:26:36 10° NNE
COSMOS 2428 4.1 00:21:06 31° ESE 00:21:32 31° ESE 00:26:28 10° NE
Cosmos 2098 Rocket 4.4 00:24:33 72° SE 00:25:01 74° E 00:32:24 10° NNE
Cosmos 2360 Rocket 3.0 00:33:24 44° NNE 00:33:24 44° NNE 00:37:12 10° NNE
NOSS 3-2 (A) 4.1 00:30:42 42° NNW 00:33:33 72° NE 00:41:51 10° SE
Cosmos 1980 Rocket 4.3 00:40:04 15° NNW 00:40:04 15° NNW 00:41:57 10° N
Resurs 1-4 Rocket 4.4 00:35:52 10° N 00:36:36 13° NNW 00:36:36 13° NNW
USA 267 3.1 00:36:06 10° NE 00:42:40 84° SE 00:42:48 83° S
Meteor 2-14 Rocket 4.5 00:43:51 75° NNE 00:43:51 75° NNE 00:49:29 10° N
COSMOS 2455 2.8 00:53:01 83° NE 00:53:01 83° NE 00:58:51 10° NE
NOSS 3-2 (C) 4.2 00:51:42 23° NW 00:56:44 69° NE 01:05:02 10° SE
ADEOS 4.3 00:52:29 10° NNE 00:57:35 50° E 00:59:31 33° SSE
H-2A R/B 4.4 00:54:33 10° NE 00:58:09 28° E 01:00:19 18° SE
Cosmos 1745 Rocket 4.4 01:02:25 48° NW 01:02:25 48° NW 01:07:19 10° N
Meteor 2-16 Rocket 4.3 01:03:36 67° S 01:04:29 90° W 01:10:37 10° N
CBERS 1 LM4 rocket 4.5 00:59:34 10° NNE 01:04:36 78° E 01:04:36 78° E
Cosmos 2278 Rocket 2.7 01:04:02 10° NNW 01:09:40 58° ENE 01:15:15 10° SE
ADEOS II 3.6 01:05:36 10° N 01:08:05 24° NNW 01:08:05 24° NNW
ARIANE 5 R/B 4.2 01:07:03 10° N 01:09:02 21° NNW 01:09:02 21° NNW
Cosmos 2333 Rocket 2.2 01:13:15 55° S 01:14:30 77° ESE 01:20:13 10° NNE
Meteor 1-22 Rocket 4.4 01:09:42 10° NNW 01:21:10 - S 01:13:43 51° NNW
Cosmos 292 Rocket 4.3 01:11:00 13° NNW 01:15:15 58° ENE 01:20:00 10° SE
Cosmos 44 3.7 01:16:10 46° N 01:16:55 52° NE 01:21:08 10° SE
USA 234 3.1 01:11:07 10° SE 01:17:37 67° SW 01:19:11 52° W
Aureole 1 Rocket 3.7 01:15:45 43° S 01:17:50 80° ESE 01:22:50 10° NNE
Cosmos 2181 Rocket 3.9 01:11:37 10° N 01:18:02 88° W 01:24:18 10° S
NOSS 2-2 (D) 3.9 01:18:46 55° ENE 01:18:46 55° ENE 01:22:17 10° NE
BREEZE-M DEB (TANK) 2.7 01:18:13 75° SSE 01:18:13 75° SSE 01:21:09 10° ENE
PSLV R/B 3.6 01:16:10 10° NNE 01:20:19 74° E 01:20:19 74° E
Cosmos 1025 Rocket 3.4 01:21:05 45° SSE 01:22:08 60° E 01:26:22 10° NNE
BREEZE-M R/B 3.6 01:26:02 63° WSW 01:26:58 89° SSE 01:36:22 10° ENE
Cosmos 2333 4.1 01:28:01 59° W 01:28:35 63° WNW 01:34:13 10° NNE
Cosmos 921 Rocket 2.9 01:28:52 56° N 01:29:45 83° ENE 01:33:59 10° SSE
ATLAS 3B R/B 2.8 01:27:54 14° NW 01:33:49 72° NE 01:40:39 10° SE
SL-16 R/B 3.8 01:35:09 19° NW 01:35:09 19° NW 01:38:47 10° N
SL-24 R/B 4.3 01:33:22 10° NNE 01:37:40 85° WNW 01:38:21 62° SSW
Cosmos 2322 4.0 01:37:23 45° WNW 01:37:56 47° NW 01:43:28 10° NNE
MSX 3.9 01:34:37 10° NNE 01:40:24 79° ESE 01:46:08 10° SSW
PAYLOAD A 4.3 01:35:59 10° NNE 01:40:46 63° ESE 01:45:42 10° S
Cosmos 1536 Rocket 3.3 01:40:54 62° SW 01:41:30 75° W 01:45:52 10° N
Cosmos 2219 Rocket 2.1 01:41:53 43° SW 01:43:39 68° WNW 01:49:15 10° NNE
Cosmos 389 Rocket 4.0 01:40:44 10° SSE 01:43:54 35° E 01:47:05 10° NNE
IDEFIX/ARIANE 42P 2.5 01:38:43 10° N 01:43:57 68° WNW 01:46:19 33° SW
CENTAUR R/B 3.1 01:38:24 10° NW 01:46:22 89° NE 01:55:04 10° SE
Cosmos 1953 3.1 01:46:06 10° N 01:50:05 54° ENE 01:54:01 10° SSE
GENESIS II 4.2 01:51:19 60° WSW 01:51:56 74° NW 01:56:02 10° NE
Cosmos 2237 Rocket 2.7 01:46:25 10° S 01:52:00 62° ESE 01:57:38 10° NNE
NOSS 2-2 (C) 3.3 01:54:20 54° WNW 01:54:43 57° NW 01:58:58 10° NE
ATLAS 2AS CENTAUR R/B 3.1 01:49:26 17° SW 01:55:57 86° SE 02:04:02 10° NE
Gblst 52 Del rocket 4.3 01:53:54 31° WNW 01:56:31 67° NNE 02:02:19 10° E
Cosmos 1758 3.1 01:53:47 10° NNW 01:57:47 72° W 02:01:47 10° S
USA 238 DEB 4.2 01:55:19 26° WNW 01:58:42 40° WSW 02:05:28 10° S
USA 238 4.2 01:55:22 26° WNW 01:58:48 40° WSW 02:05:35 10° S
Cosmos 2251 Rocket 4.2 01:59:26 33° WNW 02:00:13 34° WNW 02:05:07 10° N
GP-B 4.4 02:00:50 10° SSE 02:05:00 43° E 02:09:13 10° N
COSMOS 2428 2.9 02:03:10 30° WSW 02:05:35 49° NW 02:11:06 10° NNE
Cosmos 2369 Rocket 4.5 02:01:28 10° N 02:05:42 21° NE 02:09:54 10° E
Cosmos 2322 Rocket 4.0 02:05:38 14° NW 02:06:28 14° NW 02:09:25 10° N
Cosmos 1980 3.7 02:03:16 10° SSW 02:08:55 86° ESE 02:14:37 10° NNE
Cosmos 1606 Rocket 3.6 02:07:46 10° N 02:12:07 79° E 02:16:26 10° SSE
Cosmos 2154 Rocket 4.2 02:07:04 10° S 02:13:14 73° E 02:19:26 10° NNE
Cosmos 2327 Rocket 4.5 02:08:07 10° S 02:14:22 88° E 02:20:34 10° N
Meteor 1-31 Rocket 2.6 02:10:59 10° NNE 02:14:49 89° WSW 02:18:36 10° SSW
COSMOS 2441 4.4 02:11:29 10° N 02:16:17 56° WNW 02:21:04 10° SSW
Cosmos 2360 Rocket 3.6 02:15:12 18° WNW 02:16:25 20° NW 02:20:28 10° N
RESURS DK-1 4.3 02:13:57 10° S 02:17:36 31° ESE 02:21:16 10° NE
Cosmos 1470 3.2 02:18:48 10° NNW 02:22:28 38° W 02:26:05 10° SSW
Cosmos 2184 Rocket 4.0 02:16:54 10° SSW 02:23:02 64° WNW 02:29:19 10° N
CZ-4B R/B 3.7 02:19:48 10° N 02:23:43 74° WNW 02:27:48 10° SSW
Cosmos 1707 2.7 02:20:56 10° SSW 02:24:49 66° W 02:28:45 10° N
USA 267 3.7 02:19:12 10° NE 02:25:27 49° NNW 02:30:09 18° W
Okean 1-7 Rocket 4.1 02:23:15 10° S 02:27:38 63° E 02:32:05 10° NNE
NOSS 3 (A) 4.3 02:27:23 25° SW 02:28:48 84° NW 02:31:57 10° NE
NOSS 2-2 (E) 4.5 02:29:12 22° WNW 02:30:47 29° NNW 02:34:49 10° NNE
Cosmos 1484 Rocket 3.2 02:28:00 10° NNE 02:31:47 63° ESE 02:35:34 10° S
Nadezhda 3 Rocket 4.0 02:25:26 10° NNW 02:31:49 76° W 02:38:08 10° S
Cosmos 1190 Rocket 4.0 02:26:34 10° SSW 02:31:52 72° WNW 02:37:10 10° NNE
H-2A R/B 3.2 02:29:58 10° N 02:33:38 32° WNW 02:36:53 13° SW
Cosmos 407 Rocket 3.5 02:28:47 10° SW 02:33:53 61° WNW 02:38:58 10° NNE
Cosmos 2341 Rocket 4.5 02:30:49 10° S 02:36:59 66° E 02:43:09 10° NNE
USA 116 4.0 02:35:36 10° SSE 02:39:23 63° ENE 02:42:48 10° N
COSMOS 2455 4.0 02:36:11 17° WNW 02:39:30 26° NW 02:44:29 10° NNE
CZ-2C R/B 2.7 02:34:35 10° N 02:39:37 50° WNW 02:44:35 10° SW
ERBS 2.5 02:38:09 21° WSW 02:40:11 53° NNW 02:43:31 10° NE
ALOS 3.5 02:35:52 10° NNE 02:40:24 47° E 02:44:53 10° S
COSMO-SKYMED 1 2.5 02:36:08 10° SSE 02:40:28 81° WSW 02:44:51 10° NNW
Meteor 1-16 Rocket 4.0 02:37:12 10° NNW 02:42:30 72° W 02:47:49 10° S
COBE Rocket 3.9 02:38:03 10° S 02:43:05 75° WSW 02:48:15 10° NNW
Cosmos 1943 Rocket 3.6 02:38:55 10° NNW 02:44:12 39° NE 02:49:30 10° ESE
SL-16 R/B 2.8 02:38:48 10° SSW 02:44:22 62° ESE 02:49:59 10° NNE
Cosmos 1726 2.0 02:41:33 10° N 02:45:14 89° E 02:48:54 10° S
NOSS 0 Rocket 4.2 02:43:36 10° SW 02:49:34 49° NW 02:55:35 10° NNE
Cosmos 2297 3.7 02:47:25 10° NNW 02:53:10 74° WSW 02:58:53 10° SSE
Cosmos 2278 Rocket 3.1 02:48:47 10° NW 02:53:21 25° WSW 02:57:54 10° SSW
Cosmos 1726 Rocket 3.7 02:49:15 10° NNW 02:53:24 48° W 02:57:33 10° SSW
Cosmos 1674 3.2 02:50:47 10° S 02:54:26 62° E 02:58:08 10° NNE
Meteor 1-4 Rocket 2.9 02:52:48 10° SW 02:56:06 38° WNW 02:59:24 10° N
Cosmos 2228 3.4 02:53:33 10° NNW 02:57:34 40° W 03:01:31 10° SSW
Cosmos 44 4.2 02:54:40 11° WNW 02:57:46 22° WSW 03:01:05 10° SSW
Cosmos 2333 Rocket 3.4 02:55:19 12° W 02:59:25 24° NW 03:04:00 10° N
METEOR-M 4.5 02:54:13 10° NNE 02:59:35 72° ESE 03:04:54 10° S
Okean O Rocket 2.0 02:55:48 10° NNE 03:00:15 71° ESE 03:04:37 10° S
Cosmos 44 Rocket 3.2 02:55:49 10° NW 03:00:35 84° SW 03:05:15 10° SSE
NOSS 3-4 (A) 3.6 03:00:20 10° WSW 03:06:18 57° NW 03:12:44 10° NE
NOSS 3-4 (C) 3.6 03:00:24 10° WSW 03:06:24 58° NW 03:12:50 10° NE
Meteor 2-5 Rocket 4.0 03:01:26 10° S 03:07:13 84° E 03:13:09 10° NNE
Cosmos 1295 Rocket 4.5 03:01:06 10° SSW 03:07:13 63° WNW 03:13:19 10° N
Cosmos 2058 Rocket 3.3 03:05:25 10° NNW 03:09:41 50° W 03:13:57 10° SSW
Cosmos 1954 Rocket 4.1 03:05:08 10° SW 03:10:19 60° WNW 03:15:29 10° NNE
SL-8 Rocket 4.1 03:04:15 10° S 03:10:26 83° E 03:16:38 10° N
CZ-4B R/B 4.0 03:08:51 10° N 03:12:11 24° WNW 03:15:23 10° WSW
Cosmos 1300 4.3 03:09:11 10° N 03:12:48 39° ENE 03:16:23 10° SE
Cosmos 2366 rocket 4.4 03:11:42 10° S 03:18:02 76° E 03:24:24 10° NNE
Cosmos 389 Rocket 4.1 03:16:37 10° WSW 03:18:48 16° WNW 03:21:01 10° NNW
Cosmos 1140 Rocket 4.0 03:15:33 10° SW 03:20:22 38° WNW 03:25:13 10° N
Cosmos 1437 Rocket 2.8 03:16:45 10° SSW 03:20:26 50° WNW 03:24:09 10° N
